Find Starlink 1266

NORAD ID: 45383 Int'l Des: 2020-019 Owner: SPXS Country: US Constellation: starlink operational
LEOCIRCULAR

現在のビュー

3D地球を読み込み中...

About Starlink 1266

Starlink 1266 (NORAD 45383) is a starlink constellation satellite (v1.0) launched Mar 18, 2020 by SPXS of US. It operates in LEO, CIRCULAR orbit with a mass of 260.00 kg.

次回通過

Passes for default location (London). Set your location on the main map for personalized predictions.

高度履歴

Loading altitude history...

軌道要素

1 45383U 20019Z 26263.56292281 .00063395 00000-0 38545-3 0 9993
2 45383 53.0397 259.3859 0002071 49.6906 310.4294 15.76900066360672
Epoch: Sep 20, 2026 • Age: 15 hours

現在のステータス

高度 338.5 km
遠地点 / 近地点 N/A
速度 7.71 km/s
衛星直下点 23.79°N, 157.35°W
打ち上げ日 Mar 18, 2020
運用期間 6.5 years
タイプ internet

技術仕様

分類 Payload
質量 260.00 kg
乾燥質量 248.00 kg
長さ 0.20 m
スパン 9.00 m
形状 ? Box + pan
製造者 SPXS
バスタイプ Starlink
フェーズステータス In Orbit
所有者/国 SPXS/US

Most Searched